Date,TemperatureHighF,TemperatureAvgF,TemperatureLowF,DewpointHighF,DewpointAvgF,DewpointLowF,HumidityHigh,HumidityAvg,HumidityLow,PressureMaxIn,PressureMinIn,WindSpeedMaxMPH,WindSpeedAvgMPH,GustSpeedMaxMPH,PrecipitationSumIn
2013-7-1,65.5,62.4,59.3,62.2,60.7,58.5,97,94,89,30.03,29.89,0,0,6,0.24
2013-7-2,75.3,69.9,57.7,71.5,67.1,56.9,98,91,82,30.07,29.98,2,0,4,0.03
2013-7-3,84.2,72.6,64.3,73.9,68.5,62.9,98,88,64,30.14,30.06,4,0,4,0.00
2013-7-4,77.8,71.0,67.3,71.8,68.2,65.6,97,91,72,30.17,30.09,4,0,4,0.09
2013-7-5,78.5,70.5,65.5,70.9,67.4,64.3,97,90,74,30.13,30.05,4,0,4,0.00
2013-7-6,81.0,73.2,66.6,73.0,69.0,65.1,97,87,69,30.14,30.01,4,0,4,0.00
2013-7-7,74.0,70.3,66.6,69.9,67.7,63.8,97,92,84,30.04,29.93,5,0,5,0.19
2013-7-8,77.6,70.6,66.2,69.9,66.2,63.5,94,87,70,30.06,29.98,4,0,5,0.00
2013-7-9,73.1,69.3,66.8,71.6,67.9,65.2,97,95,93,30.04,29.89,1,0,4,0.14
2013-7-10,79.6,71.4,64.3,75.1,69.5,63.1,97,94,76,29.89,29.71,5,0,5,0.24
2013-7-11,72.4,64.2,55.7,64.1,58.7,54.5,97,84,59,30.02,29.83,5,0,5,0.02
2013-7-12,69.0,62.5,56.3,64.2,59.6,54.9,97,90,77,30.17,30.02,6,0,6,0.00
2013-7-13,78.8,67.1,58.1,69.3,63.7,56.4,96,89,66,30.25,30.15,2,0,2,0.00
2013-7-14,86.2,73.9,64.7,74.2,69.1,63.5,97,86,62,30.29,30.22,4,0,4,0.00
2013-7-15,87.0,76.3,68.5,74.5,70.0,66.9,96,82,60,30.29,30.21,5,0,5,0.00
2013-7-16,86.5,75.8,66.5,75.1,69.1,64.7,96,81,59,30.28,30.20,4,0,4,0.00
2013-7-17,86.5,77.4,69.0,77.9,71.8,67.1,95,84,65,30.24,30.09,5,0,5,0.00
2013-7-18,88.4,78.4,70.8,77.0,72.3,69.3,95,83,64,30.12,29.94,7,0,7,0.00
2013-7-19,86.3,78.5,67.2,74.5,71.1,65.3,95,78,60,29.96,29.72,12,0,12,0.73
2013-7-20,73.1,68.6,65.4,70.3,67.1,64.2,97,95,84,29.88,29.67,5,0,6,0.23
2013-7-21,77.3,68.3,60.9,66.8,62.6,59.4,97,83,62,29.98,29.88,3,0,3,0.01
2013-7-22,75.8,66.3,58.9,70.4,63.1,56.6,96,90,70,29.98,29.76,7,0,7,0.16
2013-7-23,77.3,68.4,62.4,69.2,65.1,59.8,98,90,68,29.76,29.63,5,0,5,0.08
2013-7-24,63.0,58.6,50.0,59.8,52.0,47.5,94,80,63,30.04,29.71,5,0,5,0.00
2013-7-25,70.4,58.2,46.5,56.8,50.4,44.8,97,77,51,30.13,30.04,5,0,6,0.00
2013-7-26,76.5,62.6,49.9,59.8,53.1,47.5,95,74,44,30.14,29.99,6,0,6,0.00
2013-7-27,72.3,64.7,58.4,64.7,60.3,54.9,95,86,72,30.00,29.81,2,0,5,0.00
2013-7-28,68.2,62.9,56.6,62.6,58.4,53.6,96,86,70,29.99,29.80,6,0,6,0.00
2013-7-29,62.3,58.0,53.5,59.0,54.9,51.1,95,89,78,30.17,29.97,4,0,5,0.01
2013-7-30,70.0,61.4,53.5,60.2,56.2,52.1,96,84,63,30.22,30.14,6,0,6,0.00
2013-7-31,76.0,63.5,52.0,64.0,57.7,50.3,96,83,56,30.17,29.93,4,0,4,0.00